Location: Monrovia
(34.7865°N, 86.7139°W)
Time: 21:14:46
(UTC+00:00)

SPOT 1/Viking Rocket - Pass Details

Date: 14 July 2020
Orbit: 778 x 793 km, 98.5° (Epoch: 08 August)

Event Time Altitude Azimuth Distance (km) Brightness Sun altitude
Exits shadow 03:26:27 50° 194° (SSW) 985 3.7 -23.8°
Maximum altitude 03:27:42 71° 258° (WSW) 829 3.6 -23.9°
Drops below altitude 10° 03:32:52 10° 342° (NNW) 2,348 7.0 -24.5°
Sets 03:35:13 0° 345° (NNW) 3,282 7.9 -24.8°
